This is the latest recevied weather packets stored in our database for station/object N0KWA. If no packets are shown the sender has not sent any weather packets the latest 10 day(s).
| Time | Temp. | Humidity | Pressure | Rain* | Wind** | Luminosity | Snow |
|---|---|---|---|---|---|---|---|
| 1788477578 | 26.67° C | 99% | 1015.9 hPa | 0 mm | - | 0 W/m² | - |
| 1788477273 | 26.67° C | 99% | 1015.8 hPa | 0 mm | - | 1 W/m² | - |
| 1788476967 | 26.67° C | 99% | 1015.8 hPa | 0 mm | - | 1 W/m² | - |
| 1788476663 | 26.67° C | 99% | 1015.8 hPa | 0 mm | - | 1 W/m² | - |
| 1788476360 | 26.67° C | 99% | 1015.8 hPa | 0 mm | - | 2 W/m² | - |
| 1788476055 | 26.11° C | 99% | 1015.8 hPa | 0 mm | - | 3 W/m² | - |
| 1788475752 | 26.11° C | 99% | 1015.4 hPa | 0 mm | - | 4 W/m² | - |
| 1788475447 | 26.11° C | 99% | 1015.4 hPa | 0 mm | - | 5 W/m² | - |
| 1788475143 | 26.11° C | 99% | 1015.3 hPa | 0 mm | - | 7 W/m² | - |
| 1788474842 | 26.11° C | 99% | 1015.3 hPa | 1.78 mm | - | 10 W/m² | - |
| 1788474536 | 26.67° C | 98% | 1015.2 hPa | 3.05 mm | - | 12 W/m² | - |
| 1788474236 | 26.67° C | 95% | 1015.3 hPa | 3.05 mm | - | 10 W/m² | - |
| 1788473931 | 27.78° C | 92% | 1015.4 hPa | 1.78 mm | - | 6 W/m² | - |
| 1788473630 | 28.33° C | 87% | 1015.6 hPa | 0 mm | - | 6 W/m² | - |
| 1788473328 | 28.33° C | 86% | 1015.6 hPa | 0 mm | - | 8 W/m² | - |
| 1788473022 | 28.89° C | 84% | 1015.5 hPa | 0 mm | - | 7 W/m² | - |
| 1788472721 | 29.44° C | 82% | 1015.4 hPa | 0 mm | - | 6 W/m² | - |
| 1788472418 | 30° C | 81% | 1015.4 hPa | 0 mm | - | 5 W/m² | - |
| 1788472116 | 30.56° C | 82% | 1015.4 hPa | 0 mm | - | 5 W/m² | - |
| 1788471814 | 31.11° C | 79% | 1015.3 hPa | 0 mm | - | 10 W/m² | - |
| 1788471512 | 31.11° C | 78% | 1015.1 hPa | 0 mm | - | 18 W/m² | - |
| 1788471207 | 30.56° C | 78% | 1015.1 hPa | 0 mm | - | 19 W/m² | - |
| 1788470903 | 30° C | 81% | 1015.4 hPa | 0 mm | - | 26 W/m² | - |
| 1788470599 | 30° C | 83% | 1015.3 hPa | 0 mm | - | 23 W/m² | - |
| 1788470298 | 29.44° C | 85% | 1015.4 hPa | 0 mm | - | 29 W/m² | - |
* Rain latest hour (hover to see other rain measurements)
** Current wind speed in m/s (hover to see current wind gust speed)